When you browse on this site, cookies collect data to enhance your experience and personalize the content and advertising you see.
Visit our Privacy Policy to learn more. By continuing to use the site, you agree to this use of cookies and data.
  • In Österreich
  • Länderverzeichnis
  • Für 7 Tage
  • Wassertemperatur
  • Satellitenkarten
  • Wetterkarte
  • News
  • Widgets
  • user-avatar
    Anmelden

    Stündliche Wetter Adelaide

    Heute, 23 Januar, Mittwoch

    Zeit Temperatur Niederschläge Wind Luftdruck Luftfeuchtigkeit
    00:00 +28°C° 0 mm 4 m/S 755 mmHg 41%
    01:00 +27°C° 0 mm 4 m/S 755 mmHg 42%
    02:00 +27°C° 0 mm 4 m/S 755 mmHg 43%
    03:00 +27°C° 0 mm 3 m/S 754 mmHg 41%
    04:00 +27°C° 0 mm 3 m/S 755 mmHg 40%
    05:00 +27°C° 0 mm 3 m/S 755 mmHg 40%
    06:00 +27°C° 0 mm 3 m/S 755 mmHg 39%
    07:00 +30°C° 0 mm 3 m/S 755 mmHg 35%
    08:00 +33°C° 0 mm 3 m/S 755 mmHg 31%
    09:00 +35°C° 0 mm 1 m/S 755 mmHg 26%
    10:00 +38°C° 0 mm 2 m/S 755 mmHg 24%
    11:00 +40°C° 0 mm 2 m/S 755 mmHg 22%
    12:00 +42°C° 0 mm 2 m/S 754 mmHg 20%
    13:00 +42°C° 0 mm 2 m/S 754 mmHg 19%
    14:00 +43°C° 0 mm 3 m/S 753 mmHg 19%
    15:00 +42°C° 0 mm 4 m/S 753 mmHg 18%
    16:00 +41°C° 0 mm 4 m/S 753 mmHg 21%
    17:00 +38°C° 0 mm 4 m/S 753 mmHg 24%
    18:00 +36°C° 0 mm 4 m/S 753 mmHg 27%
    19:00 +34°C° 0 mm 4 m/S 753 mmHg 32%
    20:00 +33°C° 0 mm 4 m/S 753 mmHg 36%
    21:00 +30°C° 0 mm 4 m/S 753 mmHg 40%
    22:00 +30°C° 0 mm 4 m/S 753 mmHg 38%
    23:00 +30°C° 0 mm 4 m/S 752 mmHg 36%

    Morgen, 24 Januar, Donnerstag

    Zeit Temperatur Niederschläge Wind Luftdruck Luftfeuchtigkeit
    00:00 +32°C° 0 mm 4 m/S 752 mmHg 34%
    01:00 +32°C° 0 mm 4 m/S 752 mmHg 31%
    02:00 +33°C° 0 mm 5 m/S 752 mmHg 28%
    03:00 +33°C° 0 mm 5 m/S 751 mmHg 25%
    04:00 +33°C° 0 mm 5 m/S 752 mmHg 25%
    05:00 +33°C° 0 mm 5 m/S 752 mmHg 25%
    06:00 +34°C° 0 mm 5 m/S 752 mmHg 25%
    07:00 +36°C° 0 mm 5 m/S 752 mmHg 23%
    08:00 +39°C° 0 mm 5 m/S 752 mmHg 20%
    09:00 +41°C° 0 mm 6 m/S 751 mmHg 17%
    10:00 +43°C° 0 mm 5 m/S 751 mmHg 16%
    11:00 +45°C° 0 mm 4 m/S 750 mmHg 15%
    12:00 +47°C° 0 mm 3 m/S 750 mmHg 13%
    13:00 +47°C° 0 mm 3 m/S 749 mmHg 13%
    14:00 +47°C° 0 mm 3 m/S 748 mmHg 13%
    15:00 +47°C° 0 mm 3 m/S 748 mmHg 13%
    16:00 +47°C° 0 mm 3 m/S 748 mmHg 13%
    17:00 +46°C° 0 mm 3 m/S 747 mmHg 14%
    18:00 +46°C° 0 mm 3 m/S 747 mmHg 14%
    19:00 +43°C° 0 mm 3 m/S 748 mmHg 18%
    20:00 +39°C° 0 mm 3 m/S 748 mmHg 21%
    21:00 +37°C° 0 mm 4 m/S 749 mmHg 25%
    22:00 +35°C° 0 mm 4 m/S 749 mmHg 32%
    23:00 +33°C° 0 mm 3 m/S 749 mmHg 40%

    übermorgen, 25 Januar, Freitag

    Zeit Temperatur Niederschläge Wind Luftdruck Luftfeuchtigkeit
    00:00 +30°C° 0 mm 3 m/S 750 mmHg 47%
    01:00 +30°C° 0 mm 3 m/S 750 mmHg 51%
    02:00 +29°C° 0 mm 3 m/S 750 mmHg 55%
    03:00 +28°C° 0 mm 3 m/S 750 mmHg 59%
    04:00 +28°C° 0 mm 2 m/S 751 mmHg 59%
    05:00 +27°C° 0 mm 2 m/S 751 mmHg 58%
    06:00 +27°C° 0 mm 2 m/S 752 mmHg 58%
    07:00 +28°C° 0 mm 3 m/S 752 mmHg 55%
    08:00 +28°C° 0 mm 3 m/S 753 mmHg 52%
    09:00 +29°C° 0 mm 4 m/S 753 mmHg 48%
    10:00 +30°C° 0 mm 4 m/S 753 mmHg 45%
    11:00 +32°C° 0 mm 4 m/S 753 mmHg 42%
    12:00 +33°C° 0 mm 4 m/S 753 mmHg 38%
    13:00 +30°C° 0.1 mm 4 m/S 753 mmHg 44%
    14:00 +28°C° 0.1 mm 4 m/S 753 mmHg 50%
    15:00 +26°C° 0.1 mm 4 m/S 753 mmHg 56%
    16:00 +26°C° 0.1 mm 4 m/S 753 mmHg 59%
    17:00 +25°C° 0.1 mm 4 m/S 753 mmHg 61%
    18:00 +25°C° 0.1 mm 4 m/S 754 mmHg 63%
    19:00 +24°C° 0 mm 3 m/S 754 mmHg 66%
    20:00 +24°C° 0 mm 3 m/S 754 mmHg 70%
    21:00 +22°C° 0 mm 3 m/S 754 mmHg 73%
    22:00 +22°C° 0 mm 3 m/S 754 mmHg 75%
    23:00 +23°C° 0 mm 2 m/S 754 mmHg 77%

    26 Januar, Samstag

    Zeit Temperatur Niederschläge Wind Luftdruck Luftfeuchtigkeit
    00:00 +21°C° 0 mm 2 m/S 754 mmHg 79%
    01:00 +21°C° 0 mm 2 m/S 754 mmHg 81%
    02:00 +20°C° 0 mm 2 m/S 753 mmHg 84%
    03:00 +20°C° 0 mm 2 m/S 753 mmHg 86%
    04:00 +20°C° 0 mm 2 m/S 754 mmHg 84%
    05:00 +21°C° 0 mm 1 m/S 754 mmHg 82%
    06:00 +21°C° 0 mm 1 m/S 754 mmHg 79%
    07:00 +23°C° 0 mm 2 m/S 754 mmHg 71%
    08:00 +25°C° 0 mm 2 m/S 754 mmHg 62%
    09:00 +26°C° 0 mm 2 m/S 755 mmHg 54%
    10:00 +27°C° 0 mm 3 m/S 754 mmHg 51%
    11:00 +28°C° 0 mm 3 m/S 754 mmHg 47%
    12:00 +28°C° 0 mm 4 m/S 753 mmHg 44%
    13:00 +28°C° 0 mm 4 m/S 753 mmHg 45%
    14:00 +27°C° 0 mm 5 m/S 753 mmHg 46%
    15:00 +27°C° 0 mm 5 m/S 753 mmHg 47%
    16:00 +26°C° 0 mm 5 m/S 753 mmHg 50%
    17:00 +25°C° 0 mm 5 m/S 754 mmHg 52%
    18:00 +23°C° 0 mm 5 m/S 754 mmHg 55%
    19:00 +22°C° 0 mm 5 m/S 755 mmHg 61%
    20:00 +21°C° 0 mm 4 m/S 755 mmHg 66%
    21:00 +20°C° 0 mm 4 m/S 756 mmHg 71%
    22:00 +20°C° 0 mm 4 m/S 756 mmHg 72%
    23:00 +19°C° 0 mm 4 m/S 756 mmHg 73%

    27 Januar, Sonntag

    Zeit Temperatur Niederschläge Wind Luftdruck Luftfeuchtigkeit
    00:00 +19°C° 0 mm 4 m/S 756 mmHg 74%
    01:00 +18°C° 0 mm 3 m/S 755 mmHg 75%
    02:00 +18°C° 0 mm 3 m/S 755 mmHg 76%
    03:00 +17°C° 0 mm 3 m/S 755 mmHg 77%
    04:00 +18°C° 0 mm 3 m/S 756 mmHg 75%
    05:00 +18°C° 0 mm 3 m/S 756 mmHg 73%
    06:00 +18°C° 0 mm 2 m/S 757 mmHg 71%
    07:00 +20°C° 0 mm 2 m/S 757 mmHg 65%
    08:00 +21°C° 0 mm 2 m/S 757 mmHg 59%
    09:00 +23°C° 0 mm 2 m/S 758 mmHg 53%
    10:00 +24°C° 0 mm 3 m/S 757 mmHg 50%
    11:00 +25°C° 0 mm 3 m/S 757 mmHg 46%
    12:00 +26°C° 0 mm 4 m/S 757 mmHg 42%
    13:00 +26°C° 0 mm 4 m/S 756 mmHg 42%
    14:00 +27°C° 0 mm 4 m/S 756 mmHg 41%
    15:00 +27°C° 0 mm 4 m/S 756 mmHg 41%
    16:00 +26°C° 0 mm 4 m/S 756 mmHg 45%
    17:00 +25°C° 0 mm 4 m/S 757 mmHg 49%
    18:00 +23°C° 0 mm 4 m/S 757 mmHg 53%
    19:00 +22°C° 0 mm 4 m/S 757 mmHg 58%
    20:00 +20°C° 0 mm 4 m/S 758 mmHg 64%
    21:00 +19°C° 0 mm 4 m/S 759 mmHg 69%
    22:00 +18°C° 0 mm 3 m/S 758 mmHg 71%
    23:00 +18°C° 0 mm 3 m/S 758 mmHg 73%

    28 Januar, Montag

    Zeit Temperatur Niederschläge Wind Luftdruck Luftfeuchtigkeit
    00:00 +17°C° 0 mm 3 m/S 758 mmHg 75%
    01:00 +17°C° 0 mm 2 m/S 758 mmHg 77%
    02:00 +17°C° 0 mm 2 m/S 757 mmHg 79%
    03:00 +16°C° 0 mm 1 m/S 757 mmHg 81%
    04:00 +18°C° 0 mm 1 m/S 757 mmHg 79%
    05:00 +18°C° 0 mm 1 m/S 758 mmHg 77%
    06:00 +18°C° 0 mm 1 m/S 758 mmHg 76%
    07:00 +21°C° 0 mm 1 m/S 758 mmHg 64%
    08:00 +22°C° 0 mm 0 m/S 758 mmHg 52%
    09:00 +25°C° 0 mm 0 m/S 758 mmHg 40%
    10:00 +28°C° 0 mm 1 m/S 758 mmHg 38%
    11:00 +29°C° 0 mm 2 m/S 757 mmHg 35%
    12:00 +29°C° 0 mm 4 m/S 757 mmHg 33%
    13:00 +29°C° 0 mm 4 m/S 757 mmHg 33%
    14:00 +29°C° 0 mm 4 m/S 756 mmHg 33%
    15:00 +29°C° 0 mm 4 m/S 756 mmHg 33%
    16:00 +28°C° 0 mm 4 m/S 756 mmHg 36%
    17:00 +27°C° 0 mm 4 m/S 756 mmHg 39%
    18:00 +26°C° 0 mm 4 m/S 756 mmHg 42%
    19:00 +25°C° 0 mm 4 m/S 756 mmHg 51%
    20:00 +22°C° 0 mm 4 m/S 757 mmHg 60%
    21:00 +20°C° 0 mm 4 m/S 757 mmHg 69%
    22:00 +20°C° 0 mm 3 m/S 757 mmHg 72%
    23:00 +19°C° 0 mm 3 m/S 756 mmHg 76%
    Mehr zeigen